Time,TemperatureF,DewpointF,PressureIn,WindDirection,WindDirectionDegrees,WindSpeedMPH,WindSpeedGustMPH,Humidity,HourlyPrecipIn,Conditions,Clouds,dailyrainin,SolarRadiationWatts/m^2,SoftwareType,DateUTC
2013-03-09 00:08:00,38.2,32.0,30.00,WNW,286,5.0,-999.0,78,-99.99,,,0.00,0,weatherlink.com 1.10,2013-03-09 06:08:00,
2013-03-09 00:24:00,38.0,32.0,30.00,NW,306,10.0,-999.0,78,-99.99,,,0.00,0,weatherlink.com 1.10,2013-03-09 06:24:00,
2013-03-09 00:54:00,37.8,32.0,29.99,WNW,292,2.0,-999.0,80,-99.99,,,0.00,0,weatherlink.com 1.10,2013-03-09 06:54:00,
2013-03-09 01:09:00,37.5,33.0,29.99,NW,309,4.0,-999.0,82,-99.99,,,0.00,0,weatherlink.com 1.10,2013-03-09 07:09:00,
2013-03-09 01:24:00,37.5,33.0,29.98,WNW,290,4.0,-999.0,83,-99.99,,,0.00,0,weatherlink.com 1.10,2013-03-09 07:24:00,
2013-03-09 01:39:00,37.8,33.0,29.97,North,360,4.0,-999.0,83,-99.99,,,0.00,0,weatherlink.com 1.10,2013-03-09 07:39:00,
2013-03-09 01:57:00,38.0,34.0,29.97,NW,325,2.0,-999.0,84,-99.99,,,0.00,0,weatherlink.com 1.10,2013-03-09 07:57:00,
2013-03-09 02:09:00,38.0,34.0,29.96,NW,321,2.0,-999.0,84,-99.99,,,0.00,0,weatherlink.com 1.10,2013-03-09 08:09:00,
2013-03-09 02:24:00,37.8,34.0,29.95,NW,310,7.0,-999.0,85,-99.99,,,0.00,0,weatherlink.com 1.10,2013-03-09 08:24:00,
2013-03-09 02:39:00,37.6,34.0,29.94,NW,315,0.0,-999.0,87,-99.99,,,0.00,0,weatherlink.com 1.10,2013-03-09 08:39:00,
2013-03-09 02:54:00,37.6,35.0,29.94,NW,315,3.0,-999.0,89,-99.99,,,0.00,0,weatherlink.com 1.10,2013-03-09 08:54:00,
2013-03-09 03:09:00,37.3,35.0,29.93,NW,323,4.0,-999.0,90,-99.99,,,0.00,0,weatherlink.com 1.10,2013-03-09 09:09:00,
2013-03-09 03:24:00,37.0,35.0,29.93,WNW,300,5.0,-999.0,91,-99.99,,,0.00,0,weatherlink.com 1.10,2013-03-09 09:24:00,
2013-03-09 03:39:00,37.0,35.0,29.93,NW,304,6.0,-999.0,92,-99.99,,,0.00,0,weatherlink.com 1.10,2013-03-09 09:39:00,
2013-03-09 03:54:00,36.9,35.0,29.92,NW,306,4.0,-999.0,92,-99.99,,,0.00,0,weatherlink.com 1.10,2013-03-09 09:54:00,
2013-03-09 04:17:00,36.9,35.0,29.92,NW,311,4.0,-999.0,93,-99.99,,,0.00,0,weatherlink.com 1.10,2013-03-09 10:17:00,
2013-03-09 04:24:00,36.9,35.0,29.92,WNW,300,3.0,-999.0,93,-99.99,,,0.00,0,weatherlink.com 1.10,2013-03-09 10:24:00,
2013-03-09 04:39:00,37.0,35.0,29.92,NW,306,0.0,-999.0,93,-99.99,,,0.00,0,weatherlink.com 1.10,2013-03-09 10:39:00,
2013-03-09 04:54:00,37.0,35.0,29.92,NW,317,3.0,-999.0,93,-99.99,,,0.00,0,weatherlink.com 1.10,2013-03-09 10:54:00,
2013-03-09 05:09:00,36.9,35.0,29.91,NW,324,3.0,-999.0,93,-99.99,,,0.00,0,weatherlink.com 1.10,2013-03-09 11:09:00,
2013-03-09 05:28:00,37.0,35.0,29.90,NW,323,5.0,-999.0,93,-99.99,,,0.00,0,weatherlink.com 1.10,2013-03-09 11:28:00,
2013-03-09 05:39:00,37.0,35.0,29.90,WNW,303,7.0,-999.0,93,-99.99,,,0.00,0,weatherlink.com 1.10,2013-03-09 11:39:00,
2013-03-09 05:54:00,37.0,35.0,29.90,WNW,297,10.0,-999.0,92,-99.99,,,0.00,0,weatherlink.com 1.10,2013-03-09 11:54:00,
2013-03-09 06:09:00,37.2,35.0,29.90,WNW,302,6.0,-999.0,92,-99.99,,,0.00,0,weatherlink.com 1.10,2013-03-09 12:09:00,
2013-03-09 06:24:00,37.2,35.0,29.89,North,351,3.0,-999.0,92,-99.99,,,0.00,0,weatherlink.com 1.10,2013-03-09 12:24:00,
2013-03-09 06:39:00,37.2,35.0,29.89,North,355,6.0,-999.0,92,-99.99,,,0.00,0,weatherlink.com 1.10,2013-03-09 12:39:00,
2013-03-09 06:54:00,37.3,35.0,29.89,WNW,297,10.0,-999.0,92,-99.99,,,0.00,5,weatherlink.com 1.10,2013-03-09 12:54:00,
2013-03-09 07:09:00,37.3,36.0,29.87,NW,320,7.0,-999.0,93,-99.99,,,0.00,9,weatherlink.com 1.10,2013-03-09 13:09:00,
2013-03-09 07:24:00,37.2,35.0,29.87,NW,313,4.0,-999.0,93,-99.99,,,0.00,30,weatherlink.com 1.10,2013-03-09 13:24:00,
2013-03-09 07:47:00,37.3,36.0,29.88,NW,304,6.0,-999.0,94,-99.99,,,0.00,11,weatherlink.com 1.10,2013-03-09 13:47:00,
2013-03-09 07:54:00,37.3,36.0,29.88,NNW,337,4.0,-999.0,94,-99.99,,,0.00,11,weatherlink.com 1.10,2013-03-09 13:54:00,
2013-03-09 08:09:00,37.5,36.0,29.87,North,350,4.0,-999.0,94,-99.99,,,0.00,23,weatherlink.com 1.10,2013-03-09 14:09:00,
2013-03-09 08:24:00,37.6,36.0,29.86,NW,316,3.0,-999.0,94,-99.99,,,0.00,18,weatherlink.com 1.10,2013-03-09 14:24:00,
2013-03-09 08:39:00,37.8,36.0,29.85,NNW,333,3.0,-999.0,94,-99.99,,,0.00,21,weatherlink.com 1.10,2013-03-09 14:39:00,
2013-03-09 08:58:00,38.0,37.0,29.85,NNW,336,3.0,-999.0,94,-99.99,,,0.00,47,weatherlink.com 1.10,2013-03-09 14:58:00,
2013-03-09 09:09:00,38.3,37.0,29.84,NNW,333,5.0,-999.0,94,-99.99,,,0.00,58,weatherlink.com 1.10,2013-03-09 15:09:00,
2013-03-09 09:24:00,38.5,37.0,29.84,NW,320,5.0,-999.0,94,-99.99,,,0.00,65,weatherlink.com 1.10,2013-03-09 15:24:00,
2013-03-09 09:39:00,38.8,37.0,29.83,North,355,3.0,-999.0,93,-99.99,,,0.00,44,weatherlink.com 1.10,2013-03-09 15:39:00,
2013-03-09 09:54:00,38.8,37.0,29.82,North,351,3.0,-999.0,93,-99.99,,,0.00,49,weatherlink.com 1.10,2013-03-09 15:54:00,
2013-03-09 10:09:00,38.8,37.0,29.81,North,351,4.0,-999.0,93,-99.99,,,0.00,47,weatherlink.com 1.10,2013-03-09 16:09:00,
2013-03-09 10:25:00,38.9,37.0,29.80,NNW,344,4.0,-999.0,94,-99.99,,,0.00,37,weatherlink.com 1.10,2013-03-09 16:25:00,
2013-03-09 10:40:00,38.8,37.0,29.80,North,5,3.0,-999.0,94,-99.99,,,0.00,35,weatherlink.com 1.10,2013-03-09 16:40:00,
2013-03-09 10:55:00,38.6,37.0,29.80,NNW,335,3.0,-999.0,94,-99.99,,,0.00,30,weatherlink.com 1.10,2013-03-09 16:55:00,
2013-03-09 11:19:00,38.8,37.0,29.79,NNW,335,6.0,-999.0,94,-99.99,,,0.00,26,weatherlink.com 1.10,2013-03-09 17:19:00,
2013-03-09 11:25:00,38.6,37.0,29.79,NNW,330,4.0,-999.0,94,-99.99,,,0.00,26,weatherlink.com 1.10,2013-03-09 17:25:00,
2013-03-09 11:40:00,38.6,37.0,29.79,WNW,288,9.0,-999.0,95,-99.99,,,0.00,35,weatherlink.com 1.10,2013-03-09 17:40:00,
2013-03-09 11:55:00,38.6,37.0,29.78,North,351,6.0,-999.0,95,-99.99,,,0.00,18,weatherlink.com 1.10,2013-03-09 17:55:00,
2013-03-09 12:10:00,38.6,37.0,29.77,NNW,329,4.0,-999.0,95,-99.99,,,0.00,62,weatherlink.com 1.10,2013-03-09 18:10:00,
2013-03-09 12:27:00,38.8,38.0,29.74,NNE,24,6.0,-999.0,95,-99.99,,,0.00,60,weatherlink.com 1.10,2013-03-09 18:27:00,
2013-03-09 12:40:00,39.2,38.0,29.76,North,355,2.0,-999.0,95,-99.99,,,0.00,60,weatherlink.com 1.10,2013-03-09 18:40:00,
2013-03-09 12:55:00,39.2,38.0,29.74,NW,306,7.0,-999.0,95,-99.99,,,0.00,65,weatherlink.com 1.10,2013-03-09 18:55:00,
2013-03-09 13:10:00,39.6,38.0,29.73,NNW,330,5.0,-999.0,95,-99.99,,,0.00,58,weatherlink.com 1.10,2013-03-09 19:10:00,
2013-03-09 13:25:00,39.5,38.0,29.72,NNW,331,3.0,-999.0,95,-99.99,,,0.00,42,weatherlink.com 1.10,2013-03-09 19:25:00,
2013-03-09 13:40:00,39.6,38.0,29.71,North,355,4.0,-999.0,95,-99.99,,,0.00,62,weatherlink.com 1.10,2013-03-09 19:40:00,
2013-03-09 13:55:00,39.6,38.0,29.66,NNW,331,5.0,-999.0,95,-99.99,,,0.00,67,weatherlink.com 1.10,2013-03-09 19:55:00,
2013-03-09 14:10:00,39.8,39.0,29.67,NNW,331,5.0,-999.0,95,-99.99,,,0.00,83,weatherlink.com 1.10,2013-03-09 20:10:00,
2013-03-09 14:25:00,40.3,39.0,29.66,North,360,5.0,-999.0,95,-99.99,,,0.00,70,weatherlink.com 1.10,2013-03-09 20:25:00,
2013-03-09 14:47:00,40.5,39.0,29.66,NNW,346,3.0,-999.0,95,-99.99,,,0.00,33,weatherlink.com 1.10,2013-03-09 20:47:00,
2013-03-09 14:55:00,40.3,39.0,29.66,NW,322,5.0,-999.0,95,-99.99,,,0.00,25,weatherlink.com 1.10,2013-03-09 20:55:00,
2013-03-09 15:10:00,40.3,39.0,29.67,North,355,5.0,-999.0,95,-99.99,,,0.00,30,weatherlink.com 1.10,2013-03-09 21:10:00,
2013-03-09 15:25:00,40.6,39.0,29.67,NNW,328,3.0,-999.0,95,-99.99,,,0.00,19,weatherlink.com 1.10,2013-03-09 21:25:00,
2013-03-09 15:40:00,40.6,39.0,29.66,NNW,333,3.0,-999.0,95,-99.99,,,0.00,12,weatherlink.com 1.10,2013-03-09 21:40:00,
2013-03-09 15:58:00,40.3,39.0,29.65,WNW,284,11.0,-999.0,95,-99.99,,,0.00,37,weatherlink.com 1.10,2013-03-09 21:58:00,
2013-03-09 16:10:00,40.5,40.0,29.64,West,281,5.0,-999.0,96,-99.99,,,0.00,21,weatherlink.com 1.10,2013-03-09 22:10:00,
2013-03-09 16:25:00,41.2,40.0,29.67,East,93,3.0,-999.0,96,-99.99,,,0.00,11,weatherlink.com 1.10,2013-03-09 22:25:00,
2013-03-09 16:40:00,41.6,41.0,29.70,ENE,71,0.0,-999.0,96,-99.99,,,0.00,21,weatherlink.com 1.10,2013-03-09 22:40:00,
2013-03-09 16:55:00,41.8,41.0,29.69,North,11,0.0,-999.0,96,-99.99,,,0.00,19,weatherlink.com 1.10,2013-03-09 22:55:00,
2013-03-09 17:10:00,41.8,41.0,29.69,North,11,0.0,-999.0,96,-99.99,,,0.00,14,weatherlink.com 1.10,2013-03-09 23:10:00,
2013-03-09 17:25:00,41.8,41.0,29.69,North,11,0.0,-999.0,96,-99.99,,,0.00,7,weatherlink.com 1.10,2013-03-09 23:25:00,
2013-03-09 17:40:00,41.6,41.0,29.69,North,11,0.0,-999.0,96,-99.99,,,0.00,0,weatherlink.com 1.10,2013-03-09 23:40:00,
2013-03-09 17:55:00,41.1,40.0,29.67,NW,317,0.0,-999.0,96,-99.99,,,0.00,0,weatherlink.com 1.10,2013-03-09 23:55:00,
2013-03-09 18:17:00,40.5,40.0,29.67,NW,317,6.0,-999.0,96,-99.99,,,0.00,0,weatherlink.com 1.10,2013-03-10 00:17:00,
2013-03-09 18:25:00,40.5,40.0,29.67,NW,310,3.0,-999.0,96,-99.99,,,0.00,0,weatherlink.com 1.10,2013-03-10 00:25:00,
2013-03-09 18:40:00,40.2,39.0,29.67,WNW,296,4.0,-999.0,96,-99.99,,,0.00,0,weatherlink.com 1.10,2013-03-10 00:40:00,
2013-03-09 18:55:00,40.2,39.0,29.66,NW,319,4.0,-999.0,96,-99.99,,,0.00,0,weatherlink.com 1.10,2013-03-10 00:55:00,
2013-03-09 19:10:00,40.5,40.0,29.66,NW,309,10.0,-999.0,96,-99.99,,,0.00,0,weatherlink.com 1.10,2013-03-10 01:10:00,
2013-03-09 19:28:00,41.1,40.0,29.61,North,5,9.0,-999.0,96,-99.99,,,0.00,0,weatherlink.com 1.10,2013-03-10 01:28:00,
2013-03-09 19:40:00,41.3,40.0,29.62,WNW,299,3.0,-999.0,96,-99.99,,,0.00,0,weatherlink.com 1.10,2013-03-10 01:40:00,
2013-03-09 19:55:00,42.2,41.0,29.63,NW,326,1.0,-999.0,96,-99.99,,,0.00,0,weatherlink.com 1.10,2013-03-10 01:55:00,
2013-03-09 20:10:00,43.3,43.0,29.62,WNW,302,3.0,-999.0,97,-99.99,,,0.00,0,weatherlink.com 1.10,2013-03-10 02:10:00,
2013-03-09 20:25:00,42.2,41.0,29.61,NNW,333,2.0,-999.0,96,-99.99,,,0.00,0,weatherlink.com 1.10,2013-03-10 02:25:00,
2013-03-09 20:40:00,42.5,42.0,29.61,WNW,300,6.0,-999.0,96,-99.99,,,0.00,0,weatherlink.com 1.10,2013-03-10 02:40:00,
2013-03-09 20:55:00,43.1,42.0,29.58,NNW,327,0.0,-999.0,96,-99.99,,,0.00,0,weatherlink.com 1.10,2013-03-10 02:55:00,
2013-03-09 21:10:00,44.6,44.0,29.59,NNW,333,0.0,-999.0,97,-99.99,,,0.00,0,weatherlink.com 1.10,2013-03-10 03:10:00,
2013-03-09 21:25:00,46.1,45.0,29.61,NE,55,0.0,-999.0,97,-99.99,,,0.00,0,weatherlink.com 1.10,2013-03-10 03:25:00,
2013-03-09 21:48:00,46.1,45.0,29.65,NE,55,0.0,-999.0,97,-99.99,,,0.00,0,weatherlink.com 1.10,2013-03-10 03:48:00,
2013-03-09 21:55:00,46.1,45.0,29.65,SSE,147,3.0,-999.0,97,-99.99,,,0.00,0,weatherlink.com 1.10,2013-03-10 03:55:00,
2013-03-09 22:10:00,44.6,44.0,29.65,South,178,2.0,-999.0,96,-99.99,,,0.00,0,weatherlink.com 1.10,2013-03-10 04:10:00,
2013-03-09 22:25:00,43.5,43.0,29.65,South,178,2.0,-999.0,96,-99.99,,,0.00,0,weatherlink.com 1.10,2013-03-10 04:25:00,
2013-03-09 22:40:00,42.8,42.0,29.65,South,180,3.0,-999.0,96,-99.99,,,0.00,0,weatherlink.com 1.10,2013-03-10 04:40:00,
2013-03-09 22:57:00,42.5,42.0,29.64,South,175,2.0,-999.0,96,-99.99,,,0.00,0,weatherlink.com 1.10,2013-03-10 04:57:00,
2013-03-09 23:10:00,41.9,41.0,29.63,South,176,3.0,-999.0,96,-99.99,,,0.00,0,weatherlink.com 1.10,2013-03-10 05:10:00,
2013-03-09 23:25:00,41.5,41.0,29.62,South,177,3.0,-999.0,96,-99.99,,,0.00,0,weatherlink.com 1.10,2013-03-10 05:25:00,
2013-03-09 23:40:00,41.1,40.0,29.63,South,172,3.0,-999.0,96,-99.99,,,0.00,0,weatherlink.com 1.10,2013-03-10 05:40:00,
2013-03-09 23:55:00,40.8,40.0,29.64,South,174,3.0,-999.0,96,-99.99,,,0.00,0,weatherlink.com 1.10,2013-03-10 05:55:00,